Regional Weather Roundup
Issued by NWS

Home | Current Version | Previous Version | Graphics & Text | Print | Product List | Glossary On
Versions: 1 2 3 4 5 6 7 8 9 10 11 12 13 14 15 16 17 18 19 20 21 22 23 24 25 26 27 28 29 30 31 32 33 34 35 36 37 38 39 40 41 42 43 44 45 46 47 48 49 50
000
ASUS43 KMKX 291700
RWRWI

WISCONSIN REGIONAL WEATHER ROUNDUP
NATIONAL WEATHER SERVICE MILWAUKEE/SULLIVAN WI
1200 PM CDT WED JUL 29 2015

NOTE: "FAIR" INDICATES FEW OR NO CLOUDS BELOW 12,000 FEET WITH NO
SIGNIFICANT WEATHER AND/OR OBSTRUCTIONS TO VISIBILITY.

WIZ001-002-006>008-014>016-023>028-291800-
NORTHWEST WISCONSIN

CITY           SKY/WX    TMP DP  RH WIND       PRES   REMARKS
SUPERIOR ARPT  CLOUDY    68  55  62 W16G28    29.77R
ASHLAND        CLOUDY    70  54  56 SW15G31   29.78R
HAYWARD        CLOUDY    70  51  51 W12G28    29.85R
SIREN          CLOUDY    73  53  49 W22G29    29.86R
CUMBERLAND     MOSUNNY   72  52  49 W18G32    29.88R
RICE LAKE      SUNNY     73  53  49 W21G33    29.89F
CHETEK         SUNNY    N/A N/A N/A SW15G32   29.89S
LADYSMITH      SUNNY     75  51  44 W20G29    29.88F
EAU CLAIRE     SUNNY     79  52  38 W16G37    29.90F
MENOMONIE      SUNNY     78  49  35 SW23G38   29.91S
NEW RICHMOND   SUNNY     76  50  39 W23G33    29.92R
OSCEOLA        SUNNY     75  53  47 W22G35    29.94R
$$

WIZ003>005-009-010-017-018-291800-
NORTH CENTRAL WISCONSIN

CITY           SKY/WX    TMP DP  RH WIND       PRES   REMARKS
MANITOWISH WTR   N/A     72  52  50 W22       29.82S
ARBOR VITAE    SUNNY     73  53  48 W23G32    29.82F
WOODRUFF       SUNNY     73  53  48 W23G32    29.82F
RHINELANDER    SUNNY     78  51  38 W21G36    29.84F
EAGLE RIVER    SUNNY     74  49  41 W21G32    29.81F
LAND O LAKES   MOSUNNY   73  50  43 W13G24    29.82S
PHILLIPS       SUNNY     73  53  49 SW18G30   29.83F
TOMAHAWK       SUNNY     74  52  45 W16G23    29.86S
MEDFORD        SUNNY     73  52  47 W18G35    29.89S
MERRILL        NOT AVBL
$$

WIZ029-030-035-036-043>047-291800-
CENTRAL WISCONSIN

CITY           SKY/WX    TMP DP  RH WIND       PRES   REMARKS
WAUSAU         SUNNY     78  50  37 W24G35    29.87F
MOSINEE        NOT AVBL
MARSHFIELD     SUNNY     78  47  33 W24G35    29.91F
STEVENS POINT  SUNNY     75  50  41 W15G28    29.92S
WAUPACA        SUNNY     82  48  30 W13G26    29.91S HX  81
WAUTOMA        NOT AVBL
WISC RAPIDS    SUNNY     79  48  33 W21G31    29.94S
CAMP DOUGLAS   NOT AVBL
$$

WIZ011>013-019>022-031-037>040-048>050-291800-
NORTHEAST WISCONSIN

CITY           SKY/WX    TMP DP  RH WIND       PRES   REMARKS
ANTIGO         SUNNY     75  52  43 W21G28    29.87S
SHAWANO        SUNNY     81  50  34 W16G24    29.87S HX  80
OCONTO         SUNNY     82  53  37 W16G24    29.83F HX  81
STURGEON BAY   SUNNY     81  52  36 W20G29    29.86F HX  80
GREEN BAY      SUNNY     81  53  37 W23G32    29.87F HX  80
MANITOWOC      NOT AVBL
APPLETON       MOSUNNY   81  48  32 W20G26    29.91F HX  80
CLINTONVILLE   SUNNY     81  46  30 W15G28    29.88S HX  80
OSHKOSH        SUNNY     81  51  35 W15G25    29.91F HX  80
$$

WIZ032>034-041-042-053>061-291800-
SOUTHWEST WISCONSIN

CITY           SKY/WX    TMP DP  RH WIND       PRES   REMARKS
LA CROSSE      SUNNY     82  51  34 W20G29    29.96F HX  81
SPARTA         SUNNY     78  47  32 W15G24    29.98R
VIROQUA        SUNNY     76  52  42 W14G20    30.02R
BOSCOBEL       SUNNY     82  53  36 W14G22    30.01S HX  81
PRAIRIE DU CHI SUNNY     81  46  30 W15G21    30.02R HX  80
PLATTEVILLE    SUNNY     78  57  49 W14G20    30.03S
$$

WIZ056-057-062-063-064-067-068-291800-
SOUTH CENTRAL WISCONSIN

CITY           SKY/WX    TMP DP  RH WIND       PRES   REMARKS
REEDSBURG      SUNNY     81  52  36 W14G22    29.98S HX  80
BARABOO/DELLS  SUNNY     80  44  28 W18       29.98R
LONE ROCK      NOT AVBL
MINERAL POINT  SUNNY     79  50  36 W16G22    30.03S
MADISON        MOSUNNY   80  50  34 W12G25    29.98S HX  80
MIDDLETON      SUNNY     80  47  31 W17G25    30.00S
WATERTOWN      SUNNY     79  55  43 W12       29.98S
MONROE         SUNNY     79  50  36 W16G23    30.03R
JANESVILLE     MOSUNNY   82  63  51 NW12      30.00R HX  83
$$

WIZ051-052-058>065-066-070>072-291800-
SOUTHEAST WISCONSIN

CITY           SKY/WX    TMP DP  RH WIND       PRES   REMARKS
MILWAUKEE      PTSUNNY   81  50  33 NW16G26   29.96R HX  80
WAUKESHA       SUNNY     79  54  41 W13G23    29.99R
MILWAUKEE/TIMM SUNNY     81  46  30 W17G23    29.97S HX  80
RACINE         PTSUNNY   82  56  40 NW9G20    29.99R HX  82
BURLINGTON     MOSUNNY   80  51  36 NW13G22   29.99S
KENOSHA        PTSUNNY   82  63  52 W14G22    29.98S HX  83
FOND DU LAC    SUNNY     82  50  32 W14G22    29.93F HX  81
SHEBOYGAN      MOSUNNY   82  52  35 W16G22    29.92F HX  81
WEST BEND      MOSUNNY   77  45  31 W15G22    29.96S
JUNEAU         SUNNY     77  54  45 W9G18     29.97F
$$

LSZ147-162-291800-
LAKE SUPERIOR

STATION/POSITION TIME  TEMP    WIND        PRES    WAVE
                       AIR SEA DIR/SP/G            HT/PER
                 (UTC) (F)     (DEG/KT/KT) (MB)    (FT/S)
W MID LAKE BUOY  1550   64 58  240/ 21/ 25 1004.5R   6/ 6
DEVILS ISLAND    1600   68     240/ 33/ 40 1005.6R
PORT WING        1600   71     240/ 12/ 30 1007.5R
SAXON HARBOR     1620   73                 1007.5S
$$

LMZ867-665-643>646-291800-
LAKE MICHIGAN

STATION/POSITION TIME  TEMP    WIND        PRES    WAVE
                       AIR SEA DIR/SP/G            HT/PER
                 (UTC) (F)     (DEG/KT/KT) (MB)    (FT/S)
CHAMBERS ISLAND  1600   78     200/  8/ 14 1009.5F
N MID LAKE BUOY  1550   72 69  240/ 14/ 16 1009.4S   2/ 4
NORTHPORT PIER   1600   78     230/  5/ 13 1009.8F
SISTER BAY       1514   78     270/ 15/ 17   N/A
ALGOMA LAKESHORE 1612          250/ 12/ 20   N/A
KEWAUNEE LAKESHO 1600   78     260/ 13/ 19 1011.2F
SHEBOYGAN LAKESH 1600   78     280/ 17/ 19 1013.1S
PORT WASHINGTON  1600   81     310/ 10/ 14 1014.2S
ATWATER BUOY     1600   73     270/ 12/ 16 1015.6R
MILWAUKEE LAKESH 1600   77     290/ 13/ 18   N/A
KENOSHA   LAKESH 1600   78     270/  9/ 14 1014.6R
$$

TC  - TEMPERATURE IN CELSIUS
VSB - VISIBILITY IN STATUTE MILES
WCI - WIND CHILL INDEX
HX  - HEAT INDEX



USA.gov is the U.S. government's official web portal to all federal, state and local government web resources and services.